International Virtual Aviation Organisation

Russian Federation and Kazakhstan MCD

 

Карточка аэропорта UUEE

Внимание!
Информация на этой странице в стадии наполнения.
Если вы не увидели какой-то информации, или заметили неточность - пожалуйста сообщите нам!
Спасибо!
Команда RU-STAFF
Название аэропортаШереметьево
Название аэропорта (англ.)Sheremetyevo
Превышение630 ft. (192 m.)
Координаты55°58.416', 37°24.75'
Высота перехода1200 m
Эшелон переходаBy ATC
Коды ответчика1501-1537
Зона ОрВДМосква РПИ (UUWV)
Данные METARUUEE 130930Z 18005MPS 9999 OVC017 01/M02 Q1017 R24C/150057 R24R/290051 NOSIG
Проноз погоды (TAF)UUEE 130751Z 1309/1409 16005MPS 9000 BKN015 TX01/1309Z TNM01/1406Z TEMPO 1312/1318 -SN OVC009 PROB40 TEMPO 1403/1406 -FZDZ OVC004
NOTAMshow/hide NOTAM
AWOS   TABLE

Информация о ВПП

ВПП Длина ВПП (м.) Покрытие Курс ВПП Частота ILS
06R3700Бетон64109.1
24L3700Бетон244110.5
06C3550Бетон64108.1
24C3550Бетон244111.3

Диспетчерские позиции

Позывной Наименование органа УВД Частота
UUEE_TWRШереметьево-Вышка131.500
UUEE_DELШереметьево-Деливери120.875
UUEE_GNDШереметьево-Руление121.900
UUEE_R_APPШереметьево-Круг118.100
UUEEFM1Шереметьево Машина Сопровождения121.900



Спутниковое изображение